ORBCOMM FM18 [+]

Last updated on Sat May 13 2023 00:03:01 GMT+0000 (Coordinated Universal Time)

1 25414U 98046B 23132.32728732 .00001452 00000+0 56068-3 0 9997 2 25414 44.9935 200.9843 0002386 4.8370 355.2499 14.34432742294005
UTC large
Height (km)
Speed (km/s)
/
Latitude / Longitude
Inclination (degrees)
Orbital Period (minutes)
Azimuth
Elevation
Range (km)
Doppler Factor

Next 0 passes for location: London (51.5072 / 0.1276)

Sorry there are no passes over London.
ORBCOMM FM18 [+]